Donation Index — All Events
Total (Count): $17,717.99 (647) — Max/Avg Donation: $616.00/$27.38

Name Time ReceivedAscDsc AmountAscDsc Comment
(Anonymous) 12/31/2017 09:20:49 +0000 $5.00 No
Hutch 01/03/2018 17:54:53 +0000 $1.00 No
Hutch 01/04/2018 00:27:49 +0000 $1.00 No
(Anonymous) 01/04/2018 15:38:23 +0000 $1.00 No
(Anonymous) 01/04/2018 15:50:09 +0000 $1.00 No
M..., Matthew 01/04/2018 16:12:21 +0000 $25.00 No
(Anonymous) 01/04/2018 16:53:50 +0000 $1.00 No
L..., Steven (Steven Azrael) 01/04/2018 16:56:05 +0000 $40.00 No
Fisher, Josh 01/04/2018 17:09:13 +0000 $20.00 Yes
Doyle, Joe (The Zubat Guy) 01/04/2018 17:10:45 +0000 $20.00 No
Meeks, Jason (JasonM79) 01/04/2018 17:13:04 +0000 $25.00 Yes
(Anonymous) 01/04/2018 17:13:39 +0000 $30.00 Yes
R..., Rachel 01/04/2018 17:37:48 +0000 $20.00 No
Ake, Orion (Handlebar_Orion X) 01/04/2018 17:58:12 +0000 $1.00 Yes
(Anonymous) 01/04/2018 18:05:18 +0000 $5.00 Yes
Shotaro Joestar 01/04/2018 18:07:01 +0000 $20.00 Yes
Candlegirl 01/04/2018 18:12:02 +0000 $20.00 No
(Anonymous) 01/04/2018 18:13:55 +0000 $1.00 No
Crimsonhylian 01/04/2018 18:17:08 +0000 $5.00 No
Brown, Matt (Bakstabr) 01/04/2018 18:18:42 +0000 $25.00 Yes
(Anonymous) 01/04/2018 18:37:41 +0000 $5.00 Yes
(Anonymous) 01/04/2018 19:06:37 +0000 $5.00 No
Townsend, Chris (pinkmegamanrecolor) 01/04/2018 19:17:49 +0000 $30.00 Yes
Copper, Charles (Djangoux) 01/04/2018 19:20:13 +0000 $25.00 Yes
Electrokinetica 01/04/2018 19:57:22 +0000 $10.00 No
K..., Keaghan (MANIA) 01/04/2018 19:59:00 +0000 $20.00 No
Feng Anime 01/04/2018 20:00:15 +0000 $20.00 Yes
(Anonymous) 01/04/2018 20:03:56 +0000 $5.00 No
N..., Colin (Superfly) 01/04/2018 20:04:28 +0000 $25.00 No
(Anonymous) 01/04/2018 20:34:52 +0000 $20.00 Yes
(Anonymous) 01/04/2018 20:46:16 +0000 $2.00 No
S..., John 01/04/2018 21:14:20 +0000 $20.00 No
W..., Tom (Jetflash) 01/04/2018 21:17:14 +0000 $20.00 No
R..., Adam (Adamantoise17) 01/04/2018 21:28:25 +0000 $20.00 No
M..., Desiree (Dez) 01/04/2018 22:42:01 +0000 $10.00 No
Feng Anime 01/04/2018 22:57:11 +0000 $20.00 Yes
H..., James 01/04/2018 23:06:07 +0000 $5.00 No
B..., Chad 01/04/2018 23:14:56 +0000 $20.00 No
Paper25 01/04/2018 23:40:54 +0000 $50.00 Yes
(Anonymous) 01/05/2018 00:36:22 +0000 $1.00 Yes
B..., Katya 01/05/2018 01:11:00 +0000 $20.00 No
(Anonymous) 01/05/2018 01:12:36 +0000 $10.00 No
N..., Christine 01/05/2018 01:13:05 +0000 $7.00 No
K..., Amber 01/05/2018 01:14:25 +0000 $8.00 No
G..., Jeremy 01/05/2018 01:22:28 +0000 $5.00 No
(Anonymous) 01/05/2018 01:24:40 +0000 $20.00 No
(Anonymous) 01/05/2018 01:27:54 +0000 $30.00 Yes
(Anonymous) 01/05/2018 01:42:08 +0000 $20.00 Yes
(Anonymous) 01/05/2018 01:51:17 +0000 $50.00 Yes
(Anonymous) 01/05/2018 01:57:31 +0000 $41.00 Yes

|< 1 2 3 4 5 6 10 13 >|

Back to Main Index

Running on Django with Python
Python code by UraniumAnchor, SMK, and jdeng
CSS by Cool Matty